www.pogodaiklimat.ru
ПОГОДА в Серигао Сити
Время
(UTC), дата
09 11.10
12 11.10
15 11.10
18 11.10
21 11.10
00 12.10
03 12.10
06 12.10
09 12.10
12 12.10
15 12.10
18 12.10
21 12.10
00 13.10
03 13.10
06 13.10
09 13.10
12 13.10
15 13.10
18 13.10
21 13.10
00 14.10
03 14.10
06 14.10
09 14.10
12 14.10
15 14.10
18 14.10
21 14.10
00 15.10
03 15.10
06 15.10
09 15.10
12 15.10
15 15.10
18 15.10
21 15.10
00 16.10
03 16.10
06 16.10
09 16.10
12 16.10
15 16.10
18 16.10
21 16.10
00 17.10
03 17.10
06 17.10
09 17.10
12 17.10
15 17.10
18 17.10
21 17.10
00 18.10
03 18.10
Ветер
(напр.,м/с)
Видим. Явления Облачность Т
(С)
Тd
(С)
f
(%)
Тe
(С)
Тes
(С)
Комфортность P
(гПа)
Po
(гПа)
Тmin
(С)
Tmax
(С)
R
(мм)
R24
(мм)
S
(см)
З 1 15 км мгла {туман} 8/1 540 м
[Cu med, cong Ac As Ci sp]
+29.6 +24.9 76 +42 +43 опасность
перегрева
1010.3 1005.8
штиль 0 15 км {туман} 3/1 540 м
[Cu med, cong Ci sp]
+28.0 +25.4 86 +41 +41 опасность
перегрева
1011.9 1007.4 +33.0
Ю 1 15 км 9/3 540 м
[Cu med, cong Ac As]
+26.6 +24.5 88 +37 +37 очень
душно
1012.8 1008.3
ЮВ 1 15 км 9/3 540 м
[Cu med, cong Ac As]
+26.2 +24.6 91 +37 +37 очень
душно
1011.1 1006.6
Ю 2 15 км в посл. час ливневой дождь {гроза} 9/3 540 м
[Cu med, cong Ac As]
+23.7 +23.0 96 +31 +31 очень
душно
1011.1 1006.6 12
ЮВ 2 18 км мгла {гроза} 9/3 540 м
[Cu med, cong Ac As]
+25.0 +24.2 95 +34 +36 очень
душно
1013.0 1008.5 +23.0 12
В 1 20 км мгла {туман} 9/3 540 м
[Cu med, cong Ac As]
+30.6 +26.7 80 +48 +54 опасность
перегрева
1011.5 1007.0
ЮВ 1 20 км мгла {туман} 8/3 540 м
[Cu med, cong Cs]
+32.4 +26.5 71 +49 +58 опасность
перегрева
1009.5 1005.0
ЮЗ 1 20 км мгла {туман} 9/3 540 м
[Cu med, cong Cs]
+30.0 +26.4 81 +46 +46 опасность
перегрева
1009.7 1005.2
Ю 1 15 км {туман} 9/3 540 м
[Cu med, cong Ac As]
+27.4 +25.6 90 +40 +40 очень
душно
1011.6 1007.1 +32.4
ЮЗ 2 15 км 9/3 540 м
[Cu med, cong Ac As]
+27.0 +25.2 90 +39 +39 очень
душно
1012.5 1008.0
ЮВ 2 15 км 9/3 540 м
[Cu med, cong Ac As]
+26.6 +24.7 89 +38 +38 очень
душно
1011.2 1006.7
Ю 1 15 км 10/3 540 м
[Cu med, cong Ac As]
+26.4 +24.5 89 +37 +37 очень
душно
1011.2 1006.7
Ю 1 12 км мгла {туман} 10/3 540 м
[Cu med, cong Ac As]
+25.8 +25.0 95 +37 +38 очень
душно
1013.3 1008.8 +25.0 0.4
В 1 12 км осадки на расстоянии {туман} 9/3 540 м
[Cu med, cong Ac As]
+29.8 +25.9 80 +45 +51 опасность
перегрева
1012.7 1008.2
В 3 15 км мгла {туман} 9/3 540 м
[Cu med, cong Ac As]
+30.4 +25.7 76 +45 +48 опасность
перегрева
1010.7 1006.2
В 3 15 км мгла {туман} 10/3 540 м
[Cu med, cong Ac As]
+29.2 +25.8 82 +44 +44 опасность
перегрева
1011.4 1006.9
Ю 1 15 км {туман} 8/3 540 м
[Cu med, cong Ac As]
+27.6 +25.5 88 +40 +40 очень
душно
1013.1 1008.6 +30.4
Ю 1 15 км 9/3 540 м
[Cu med, cong Ac As]
+27.8 +25.2 86 +40 +40 очень
душно
1012.9 1008.4
ЮЗ 1 15 км 9/3 540 м
[Cu med, cong Ac As]
+27.0 +24.8 88 +39 +39 очень
душно
1012.9 1008.4
Ю 1 15 км осадки на расстоянии 9/3 540 м
[Cu med, cong Ac As]
+26.6 +24.5 88 +37 +37 очень
душно
1012.7 1008.2
ЮВ 1 15 км мгла {туман} 3/3 540 м
[Cu med, cong Ci sp]
+29.2 +24.4 75 +41 +46 опасность
перегрева
1013.6 1009.1 +24.5 0.1
С 4 15 км в посл. час гроза {туман} 9/5 500 м
[Cb cap Ac As]
+31.4 +25.7 72 +46 +49 опасность
перегрева
1013.4 1008.9
С 1 15 км мгла {гроза, туман} 9/3 500 м
[Cb cap Ac cuf Cs]
+29.8 +25.4 77 +44 +50 опасность
перегрева
1011.5 1007.0
В 1 15 км мгла {туман} 10/3 500 м
[Cb cap Ac As]
+29.0 +25.1 80 +42 +42 опасность
перегрева
1011.7 1007.2
Ю 1 15 км {туман} 10/1 540 м
[Cu med, cong Ac As]
+27.6 +25.5 88 +40 +40 очень
душно
1014.1 1009.6 +31.4
штиль 0 15 км 9/1 540 м
[Cu med, cong Ac As]
+27.0 +25.2 90 +39 +39 очень
душно
1014.5 1010.0
ЮЗ 1 15 км 5/3 540 м
[Cu med, cong Ci sp]
+26.0 +24.9 94 +37 +37 очень
душно
1012.5 1008.0
штиль 0 15 км осадки на расстоянии 9/3 500 м
[Cb cap Ac As]
+26.0 +24.7 93 +37 +37 очень
душно
1012.3 1007.8
В 1 15 км мгла {туман} 8/4 500 м
[Cb cap Ac As]
+27.0 +25.7 93 +40 +42 очень
душно
1014.3 1009.8 +25.0
С 1 12 км слаб. ливневой дождь {туман} 9/4 500 м
[Cb cap Ac As]
+27.6 +26.0 91 +41 +47 опасность
перегрева
1013.6 1009.1
С 1 15 км осадки на расстоянии {ливн. осадки, туман} 9/4 500 м
[Cb cap Ac cuf Cs]
+29.6 +25.2 77 +43 +48 опасность
перегрева
1011.5 1007.0 0.8
СВ 1 15 км мгла {туман} 6/3 500 м
[Cb cap Ac cuf Ci sp]
+28.6 +26.0 86 +43 +43 опасность
перегрева
1010.9 1006.4
СВ 2 15 км {туман} 4/3 540 м
[Cu med, cong Ci sp]
+28.0 +24.6 82 +40 +40 очень
душно
1012.7 1008.2 +30.0
Ю 1 18 км 3/3 540 м
[Cu med, cong]
+26.4 +25.1 93 +38 +38 очень
душно
1013.5 1009.0
Ю 2 15 км осадки на расстоянии {ливн. осадки} 9/3 500 м
[Cb cap Ac As]
+25.4 +24.6 95 +36 +36 очень
душно
1011.6 1007.1 0.0
ЮЗ 1 15 км осадки на расстоянии 9/3 500 м
[Cb cap Ac As]
+25.4 +24.3 94 +35 +35 очень
душно
1011.2 1006.7
С 1 15 км мгла {туман} 6/1 500 м
[Cb cap Ac cuf Ci sp]
+29.0 +25.3 80 +42 +47 опасность
перегрева
1012.8 1008.3 +24.5 0.8
СВ 1 15 км осадки на расстоянии {туман} 8/4 500 м
[Cb cap Ac As]
+30.6 +25.9 76 +46 +53 опасность
перегрева
1012.3 1007.8
СЗ 1 18 км в посл. час ливневой дождь {туман} 9/4 500 м
[Cb cap Ac As]
+27.8 +24.6 83 +39 +43 очень
душно
1010.3 1005.8 0.1
СВ 1 15 км в посл. час ливневой дождь {гроза, туман} 9/4 500 м
[Cb cap Ac As]
+27.8 +26.0 90 +42 +42 опасность
перегрева
1010.3 1005.8 2
С 4 15 км осадки на расстоянии {ливн. осадки, туман} 9/3 500 м
[Cu med, cong Ac As]
+27.0 +24.6 87 +38 +38 очень
душно
1012.3 1007.8 +30.6 2
С 1 15 км 10/4 500 м
[Cb cap Ac As]
+26.6 +24.5 88 +37 +37 очень
душно
1012.9 1008.4
Ю 1 15 км 9/3 540 м
[Cu med, cong Ac As]
+26.4 +24.0 87 +37 +37 очень
душно
1011.7 1007.2
Ю 1 15 км 10/3 500 м
[Cu med, cong Ac As]
+26.0 +23.8 88 +36 +36 очень
душно
1011.7 1007.2
Ю 1 15 км слаб. ливневой дождь 9/3 540 м
[Cu med, cong Ac As]
+26.0 +25.5 97 +38 +40 очень
душно
1013.5 1009.0 +25.0 4
С 1 18 км мгла {туман} 9/3 500 м
[Cb cap Ac As]
+28.8 +25.7 83 +43 +49 опасность
перегрева
1013.1 1008.6 0.1
С 2 18 км мгла {туман} 9/4 500 м
[Cb cap Ac As]
+29.4 +26.0 82 +44 +47 опасность
перегрева
1010.7 1006.2 0.1
СЗ 1 20 км мгла {туман} 9/3 500 м
[Cb cap Ac As Cs]
+27.8 +25.4 87 +41 +41 опасность
перегрева
1011.4 1006.9
З 1 15 км осадки на расстоянии {туман} 9/4 500 м
[Cb cap Ac As]
+27.0 +25.7 93 +40 +40 очень
душно
1013.3 1008.8 +30.0
З 1 15 км 9/3 540 м
[Cu med, cong Ac As]
+26.8 +25.2 91 +39 +39 очень
душно
1013.5 1009.0
Ю 1 15 км 9/3 540 м
[Cu med, cong Ac As]
+26.2 +24.9 93 +37 +37 очень
душно
1012.5 1008.0
Ю 1 15 км 9/3 540 м
[Cu med, cong Ac As]
+25.8 +24.7 94 +37 +37 очень
душно
1012.5 1008.0
В 1 18 км мгла {туман} 5/4 500 м
[Cb cap Ac cuf]
+29.6 +25.7 80 +44 +48 опасность
перегрева
1013.8 1009.3 +24.5 0.1
СВ 1 20 км мгла {туман} 8/4 540 м
[Cu med, cong Ac cuf]
+31.2 +25.8 73 +46 +53 опасность
перегрева
1012.8 1008.3
Местоположение метеостанции Серигао Сити (Филиппины): широта 9.80 долгота 125.50 высота над уровнем моря 55 м.
В архиве по умолчанию представлена погода в Серигао Сити за последнюю неделю. Архивные данные за месяц целиком и за предыдущие месяцы, начиная с января 2011 года, Вы можете получить, выбрав интересующий диапазон дат из раскрывающегося списка и нажав кнопку "Найти!".
*Определитесь, кто Вы:
Внимание! Время в таблицах - всемирное. Для получения местного времени необходимо прибавить поправку, которая равна 8 ч.
Смотрите также архив погоды в соседних городах и на ближайших метеорологических станциях:
Партнеры нашего сайта:      
Пояснения к столбцам:
  • Ветер - указаны скорость ветра в м/с - средняя за 10 мин, порывы в срок и между сроками (в фигурных скобках) и направление, откуда дует ветер: С - северный,
  • СВ - северо-восточный, В - восточный, ЮВ - юго-восточный, Ю - южный, ЮЗ - юго-западный, З - западный, СЗ - северо-западный.
  • Видимость - горизонтальная дальность видимости в метрах или километрах. При видимости от 1 до 10 км при отсутствии осадков обычно наблюдается дымка, при ухудшении видимости до 1 км и менее - туман. В сухую погоду видимость может ухудшаться дымом, пылью или мглою.
  • Явления - указаны атмосферные явления, наблюдавшиеся в срок или в последний час перед сроком; фигурными скобками обозначены явления, наблюдавшиеся между сроками (за 1-3 часа до срока); квадратными скобками обозначены град или гололедные отложения с указанием их диаметра в мм.
  • Облачность - указаны через наклонную черту общая и нижняя облачность в баллах и высота нижней границы облаков в метрах; квадратными скобками обозначены формы облаков: Ci - перистые, Cs - перисто-слоистые, Cc - перисто-кучевые, Ac - высококучевые, As - высокослоистые, Sc - слоисто-кучевые, Ns - слоисто-дождевые, Cu - кучевые, Cb - кучево-дождевые. Подробнее классификацию облаков см. в Атласе облаков (PDF).
  • T - Температура воздуха - температура, измеренная на высоте 2 м над землей.
  • Td - Температура точки росы - температура, при понижении до которой содержащийся в воздухе водяной пар достигнет насыщения.
  • f - Относительная влажность воздуха - влажноcть воздуха, измеренная на высоте 2 м над землей.
  • Te - Эффективная температура - температура, которую ощущает одетый по сезону человек в тени. Характеристика душности погоды. При расчете учитывается влияние влажности воздуха и скорости ветра на теплоощущения человека.
  • Tes - Эффективная температура на солнце - температура, которую ощущает человек, с поправкой на солнечный нагрев. Характеристика знойности погоды. Зависит от высоты солнца над горизонтом, облачности и скорости ветра. Ночью, в пасмурную погоду, а также при ветре 12 м/с и более поправка равна нулю.
  • P - Атмосферное давление - приведенное к уровню моря атмосферное давление.
  • Po - Атмосферное давление - измеренное на уровне метеостанции атмосферное давление.
  • Tmin - Минимальная температура - минимум температуры воздуха на высоте 2 м над землей.
  • Tmax - Максимальная температура - максимум температуры воздуха на высоте 2 м над землей.
  • R - Количество осадков - Количество выпавших осадков за период времени, мм. При наведении курсора мыши на число - период времени, за который выпало указанное количество осадков.
  • R24 - Количество осадков - Количество выпавших осадков за 24 часа, мм.
  • S - Снежный покров - Высота снежного покрова, см. При наведении курсора мыши на число - состояние снежного покрова и степень покрытия местности в баллах.